{"data":{"norad_id":58346,"intl_designator":"2023-175A","name":"O3B MPOWER F5","alt_names":[],"object_type":"PAYLOAD","status":"ACTIVE","operator":null,"country":"O3B","launch_date":"2023-11-12","launch_site_code":"AFETR","launch_vehicle":null,"mission":null,"orbit_class":"UNKNOWN","rcs_meters":null,"size_class":null,"mass_kg":null,"dimensions":null,"purposes":["comms"],"wikipedia_slug":null,"has_3d_model":false,"image_url":null,"decayed_at":null,"tle_current":{"epoch":"2026-05-20T17:21:51.906816Z","epoch_age_seconds":444649,"freshness":"STALE","line1":"1 58346U 23175A   26140.72351744 -.00000023  00000+0  00000+0 0  9994","line2":"2 58346   0.0469  12.7092 0004726  60.9652 286.3772  5.00115437 48064","mean_motion":5.00115437,"eccentricity":0.0004726,"inclination_deg":0.0469,"raan_deg":12.7092,"arg_perigee_deg":60.9652,"mean_anomaly_deg":286.3772,"bstar":0,"rev_number":4806,"period_min":287.93352363566,"perigee_km":8059.0651834697,"apogee_km":8072.7176791429,"semimajor_km":14444.028431306,"source":"CELESTRAK","updated_at":"2026-05-25T13:38:14.519680Z"}}}